Time,TemperatureF,DewpointF,PressureIn,WindDirection,WindDirectionDegrees,WindSpeedMPH,WindSpeedGustMPH,Humidity,HourlyPrecipIn,Conditions,Clouds,dailyrainin,SoftwareType,DateUTC
2015-05-06 00:03:00,66.7,55.4,30.19,SSE,153,0.0,0.0,67,0.00,,,0.00,meteobridge,2015-05-06 04:03:00,
2015-05-06 00:08:00,66.6,55.2,30.19,SSE,154,0.0,0.0,67,0.00,,,0.00,meteobridge,2015-05-06 04:08:00,
2015-05-06 00:13:00,66.6,55.2,30.19,SSE,154,0.0,0.0,67,0.00,,,0.00,meteobridge,2015-05-06 04:13:00,
2015-05-06 00:18:00,66.4,55.0,30.19,SSE,153,0.0,0.0,67,0.00,,,0.00,meteobridge,2015-05-06 04:18:00,
2015-05-06 00:23:00,66.2,55.4,30.19,SSE,154,0.0,0.0,68,0.00,,,0.00,meteobridge,2015-05-06 04:23:00,
2015-05-06 00:28:00,66.0,55.2,30.19,SSE,154,0.0,0.0,68,0.00,,,0.00,meteobridge,2015-05-06 04:28:00,
2015-05-06 00:33:00,65.8,55.0,30.19,SSE,154,0.0,0.0,68,0.00,,,0.00,meteobridge,2015-05-06 04:33:00,
2015-05-06 00:38:00,65.8,55.4,30.19,SSE,154,0.0,0.0,69,0.00,,,0.00,meteobridge,2015-05-06 04:38:00,
2015-05-06 00:43:00,65.7,55.2,30.19,SSE,154,0.0,0.0,69,0.00,,,0.00,meteobridge,2015-05-06 04:43:00,
2015-05-06 00:49:00,65.7,55.2,30.19,SSE,154,0.0,0.0,69,0.00,,,0.00,meteobridge,2015-05-06 04:49:00,
2015-05-06 00:54:00,65.5,55.0,30.19,SSE,154,0.0,0.0,69,0.00,,,0.00,meteobridge,2015-05-06 04:54:00,
2015-05-06 00:59:00,65.5,55.4,30.19,SSE,154,0.0,0.0,70,0.00,,,0.00,meteobridge,2015-05-06 04:59:00,
2015-05-06 01:04:00,65.3,54.9,30.19,SSE,154,0.0,0.0,69,0.00,,,0.00,meteobridge,2015-05-06 05:04:00,
2015-05-06 01:09:00,65.1,55.4,30.19,SSE,154,0.0,0.0,71,0.00,,,0.00,meteobridge,2015-05-06 05:09:00,
2015-05-06 01:14:00,65.1,55.0,30.19,SSE,154,0.0,0.0,70,0.00,,,0.00,meteobridge,2015-05-06 05:14:00,
2015-05-06 01:19:00,64.9,55.4,30.19,SSE,154,0.0,0.0,71,0.00,,,0.00,meteobridge,2015-05-06 05:19:00,
2015-05-06 01:24:00,64.8,55.6,30.19,SSE,154,0.0,0.0,72,0.00,,,0.00,meteobridge,2015-05-06 05:24:00,
2015-05-06 01:29:00,64.6,55.8,30.19,SSE,154,0.0,0.0,73,0.00,,,0.00,meteobridge,2015-05-06 05:29:00,
2015-05-06 01:34:00,64.6,55.8,30.19,SSE,154,0.0,0.0,73,0.00,,,0.00,meteobridge,2015-05-06 05:34:00,
2015-05-06 01:39:00,64.6,55.8,30.19,SSE,154,0.0,0.0,73,0.00,,,0.00,meteobridge,2015-05-06 05:39:00,
2015-05-06 01:44:00,64.6,55.8,30.19,SSE,153,0.0,0.0,73,0.00,,,0.00,meteobridge,2015-05-06 05:44:00,
2015-05-06 01:49:00,64.6,56.1,30.19,SSE,154,0.0,0.0,74,0.00,,,0.00,meteobridge,2015-05-06 05:49:00,
2015-05-06 01:54:00,64.4,55.9,30.19,SSE,154,0.0,0.0,74,0.00,,,0.00,meteobridge,2015-05-06 05:54:00,
2015-05-06 01:59:00,64.2,55.4,30.19,SSE,154,0.0,0.0,73,0.00,,,0.00,meteobridge,2015-05-06 05:59:00,
2015-05-06 02:04:00,63.9,55.4,30.19,SSE,153,0.0,0.0,74,0.00,,,0.00,meteobridge,2015-05-06 06:04:00,
2015-05-06 02:09:00,63.7,55.2,30.19,SSE,154,0.0,0.0,74,0.00,,,0.00,meteobridge,2015-05-06 06:09:00,
2015-05-06 02:14:00,63.7,55.2,30.19,SSE,154,0.0,0.0,74,0.00,,,0.00,meteobridge,2015-05-06 06:14:00,
2015-05-06 02:19:00,63.5,55.0,30.18,SSE,154,0.0,0.0,74,0.00,,,0.00,meteobridge,2015-05-06 06:19:00,
2015-05-06 02:24:00,63.3,54.9,30.18,SSE,154,0.0,0.0,74,0.00,,,0.00,meteobridge,2015-05-06 06:24:00,
2015-05-06 02:29:00,63.1,54.7,30.18,SSE,154,0.0,0.0,74,0.00,,,0.00,meteobridge,2015-05-06 06:29:00,
2015-05-06 02:34:00,63.1,55.0,30.18,SSE,154,0.0,0.0,75,0.00,,,0.00,meteobridge,2015-05-06 06:34:00,
2015-05-06 02:39:00,63.0,54.9,30.18,SSE,154,0.0,0.0,75,0.00,,,0.00,meteobridge,2015-05-06 06:39:00,
2015-05-06 02:44:00,63.0,55.2,30.18,SSE,154,0.0,0.0,76,0.00,,,0.00,meteobridge,2015-05-06 06:44:00,
2015-05-06 02:50:00,62.8,55.0,30.18,SSE,154,0.0,0.0,76,0.00,,,0.00,meteobridge,2015-05-06 06:50:00,
2015-05-06 02:55:00,62.8,55.4,30.18,SSE,154,0.0,0.0,77,0.00,,,0.00,meteobridge,2015-05-06 06:55:00,
2015-05-06 03:00:00,62.8,55.4,30.18,SSE,154,0.0,0.0,77,0.00,,,0.00,meteobridge,2015-05-06 07:00:00,
2015-05-06 03:05:00,62.8,55.0,30.18,SSE,154,0.0,0.0,76,0.00,,,0.00,meteobridge,2015-05-06 07:05:00,
2015-05-06 03:10:00,62.8,55.4,30.18,SSE,154,0.0,0.0,77,0.00,,,0.00,meteobridge,2015-05-06 07:10:00,
2015-05-06 03:15:00,62.6,55.2,30.18,SSE,154,0.0,0.0,77,0.00,,,0.00,meteobridge,2015-05-06 07:15:00,
2015-05-06 03:20:00,62.4,55.0,30.18,SSE,154,0.0,0.0,77,0.00,,,0.00,meteobridge,2015-05-06 07:20:00,
2015-05-06 03:25:00,62.2,54.9,30.18,SSE,153,0.0,0.0,77,0.00,,,0.00,meteobridge,2015-05-06 07:25:00,
2015-05-06 03:30:00,62.1,55.0,30.19,SSE,154,0.0,0.0,78,0.00,,,0.00,meteobridge,2015-05-06 07:30:00,
2015-05-06 03:35:00,62.1,55.0,30.18,SSE,154,0.0,0.0,78,0.00,,,0.00,meteobridge,2015-05-06 07:35:00,
2015-05-06 03:40:00,61.9,54.9,30.19,SSE,154,0.0,0.0,78,0.00,,,0.00,meteobridge,2015-05-06 07:40:00,
2015-05-06 03:45:00,61.9,54.9,30.18,SSE,153,0.0,0.0,78,0.00,,,0.00,meteobridge,2015-05-06 07:45:00,
2015-05-06 03:50:00,61.7,55.0,30.19,SSE,154,0.0,0.0,79,0.00,,,0.00,meteobridge,2015-05-06 07:50:00,
2015-05-06 03:55:00,61.7,55.0,30.19,SSE,154,0.0,0.0,79,0.00,,,0.00,meteobridge,2015-05-06 07:55:00,
2015-05-06 04:00:00,61.5,54.9,30.18,SSE,154,0.0,0.0,79,0.00,,,0.00,meteobridge,2015-05-06 08:00:00,
2015-05-06 04:05:00,61.7,55.4,30.19,SSE,154,0.0,0.0,80,0.00,,,0.00,meteobridge,2015-05-06 08:05:00,
2015-05-06 04:10:00,61.7,55.0,30.18,SSE,154,0.0,0.0,79,0.00,,,0.00,meteobridge,2015-05-06 08:10:00,
2015-05-06 04:15:00,61.5,54.9,30.19,SSE,154,0.0,0.0,79,0.00,,,0.00,meteobridge,2015-05-06 08:15:00,
2015-05-06 04:20:00,61.3,54.9,30.18,SSE,154,0.0,0.0,79,0.00,,,0.00,meteobridge,2015-05-06 08:20:00,
2015-05-06 04:25:00,61.2,54.9,30.19,SSE,154,0.0,0.0,80,0.00,,,0.00,meteobridge,2015-05-06 08:25:00,
2015-05-06 04:30:00,61.0,54.7,30.18,SSE,154,0.0,0.0,80,0.00,,,0.00,meteobridge,2015-05-06 08:30:00,
2015-05-06 04:35:00,60.8,54.9,30.18,SSE,154,0.0,0.0,81,0.00,,,0.00,meteobridge,2015-05-06 08:35:00,
2015-05-06 04:40:00,60.6,54.7,30.18,SSE,154,0.0,0.0,81,0.00,,,0.00,meteobridge,2015-05-06 08:40:00,
2015-05-06 04:45:00,60.4,54.9,30.18,SSE,154,0.0,0.0,82,0.00,,,0.00,meteobridge,2015-05-06 08:45:00,
2015-05-06 04:50:00,60.3,54.7,30.18,SSE,154,0.0,0.0,82,0.00,,,0.00,meteobridge,2015-05-06 08:50:00,
2015-05-06 04:55:00,60.1,54.5,30.18,SSE,154,0.0,0.0,82,0.00,,,0.00,meteobridge,2015-05-06 08:55:00,
2015-05-06 05:01:00,59.7,54.5,30.18,SSE,154,0.0,0.0,83,0.00,,,0.00,meteobridge,2015-05-06 09:01:00,
2015-05-06 05:06:00,59.5,54.7,30.18,SSE,154,0.0,0.0,84,0.00,,,0.00,meteobridge,2015-05-06 09:06:00,
2015-05-06 05:11:00,59.4,54.5,30.18,SSE,154,0.0,0.0,84,0.00,,,0.00,meteobridge,2015-05-06 09:11:00,
2015-05-06 05:16:00,59.4,54.5,30.18,SSE,154,0.0,0.0,84,0.00,,,0.00,meteobridge,2015-05-06 09:16:00,
2015-05-06 05:21:00,59.2,54.3,30.18,SSE,154,0.0,0.0,84,0.00,,,0.00,meteobridge,2015-05-06 09:21:00,
2015-05-06 05:26:00,59.0,54.5,30.18,SSE,154,0.0,0.0,85,0.00,,,0.00,meteobridge,2015-05-06 09:26:00,
2015-05-06 05:31:00,58.8,54.3,30.18,SSE,154,0.0,0.0,85,0.00,,,0.00,meteobridge,2015-05-06 09:31:00,
2015-05-06 05:36:00,58.8,54.3,30.18,SSE,154,0.0,0.0,85,0.00,,,0.00,meteobridge,2015-05-06 09:36:00,
2015-05-06 05:41:00,58.6,54.5,30.18,SSE,154,0.0,0.0,86,0.00,,,0.00,meteobridge,2015-05-06 09:41:00,
2015-05-06 05:46:00,58.6,54.5,30.18,SSE,154,0.0,0.0,86,0.00,,,0.00,meteobridge,2015-05-06 09:46:00,
2015-05-06 05:51:00,58.6,54.5,30.18,SSE,154,0.0,0.0,86,0.00,,,0.00,meteobridge,2015-05-06 09:51:00,
2015-05-06 05:56:00,58.6,54.5,30.18,SSE,154,0.0,0.0,86,0.00,,,0.00,meteobridge,2015-05-06 09:56:00,
2015-05-06 06:01:00,58.6,54.5,30.18,SSE,154,0.0,0.0,86,0.00,,,0.00,meteobridge,2015-05-06 10:01:00,
2015-05-06 06:06:00,58.5,54.3,30.18,SSE,154,0.0,0.0,86,0.00,,,0.00,meteobridge,2015-05-06 10:06:00,
2015-05-06 06:11:00,58.3,54.1,30.18,SSE,154,0.0,0.0,86,0.00,,,0.00,meteobridge,2015-05-06 10:11:00,
2015-05-06 06:16:00,58.3,54.5,30.18,SSE,154,0.0,0.0,87,0.00,,,0.00,meteobridge,2015-05-06 10:16:00,
2015-05-06 06:21:00,58.1,54.3,30.18,SSE,154,0.0,0.0,87,0.00,,,0.00,meteobridge,2015-05-06 10:21:00,
2015-05-06 06:26:00,57.9,54.3,30.18,SSE,154,0.0,0.0,88,0.00,,,0.00,meteobridge,2015-05-06 10:26:00,
2015-05-06 06:31:00,57.9,54.3,30.18,SSE,154,0.0,0.0,88,0.00,,,0.00,meteobridge,2015-05-06 10:31:00,
2015-05-06 06:36:00,57.7,54.1,30.18,SSE,154,0.0,0.0,88,0.00,,,0.00,meteobridge,2015-05-06 10:36:00,
2015-05-06 06:41:00,57.7,54.5,30.19,SSE,154,0.0,0.0,89,0.00,,,0.00,meteobridge,2015-05-06 10:41:00,
2015-05-06 06:46:00,57.6,54.3,30.19,SSE,154,0.0,0.0,89,0.00,,,0.00,meteobridge,2015-05-06 10:46:00,
2015-05-06 06:51:00,57.6,54.3,30.19,SSE,154,0.0,0.0,89,0.00,,,0.00,meteobridge,2015-05-06 10:51:00,
2015-05-06 06:56:00,57.6,54.7,30.19,SSE,154,0.0,0.0,90,0.00,,,0.00,meteobridge,2015-05-06 10:56:00,
2015-05-06 07:01:00,57.6,54.7,30.19,SSE,154,0.0,0.0,90,0.00,,,0.00,meteobridge,2015-05-06 11:01:00,
2015-05-06 07:06:00,57.6,54.7,30.19,SSE,154,0.0,0.0,90,0.00,,,0.00,meteobridge,2015-05-06 11:06:00,
2015-05-06 07:11:00,57.7,55.2,30.19,SSE,154,0.0,0.0,91,0.00,,,0.00,meteobridge,2015-05-06 11:11:00,
2015-05-06 07:17:00,57.7,55.2,30.19,SSE,154,0.0,0.0,91,0.00,,,0.00,meteobridge,2015-05-06 11:17:00,
2015-05-06 07:22:00,57.7,55.2,30.19,SSE,154,0.0,0.0,91,0.00,,,0.00,meteobridge,2015-05-06 11:22:00,
2015-05-06 07:27:00,57.9,55.2,30.19,SSE,154,0.0,0.0,91,0.00,,,0.00,meteobridge,2015-05-06 11:27:00,
2015-05-06 07:32:00,58.1,55.4,30.19,SSE,154,0.0,0.0,91,0.00,,,0.00,meteobridge,2015-05-06 11:32:00,
2015-05-06 07:37:00,58.3,55.6,30.19,SSE,154,0.0,0.0,91,0.00,,,0.00,meteobridge,2015-05-06 11:37:00,
2015-05-06 07:42:00,58.5,55.8,30.19,SSE,154,0.0,0.0,91,0.00,,,0.00,meteobridge,2015-05-06 11:42:00,
2015-05-06 07:47:00,58.8,56.1,30.20,SSE,154,0.0,0.0,91,0.00,,,0.00,meteobridge,2015-05-06 11:47:00,
2015-05-06 07:52:00,59.2,56.8,30.20,SSE,154,0.0,0.0,92,0.00,,,0.00,meteobridge,2015-05-06 11:52:00,
2015-05-06 07:57:00,59.5,57.2,30.20,SSE,154,0.0,0.0,92,0.00,,,0.00,meteobridge,2015-05-06 11:57:00,
2015-05-06 08:02:00,60.1,57.7,30.20,SSE,154,0.0,0.0,92,0.00,,,0.00,meteobridge,2015-05-06 12:02:00,
2015-05-06 08:07:00,60.6,58.3,30.20,SSE,154,0.0,0.0,92,0.00,,,0.00,meteobridge,2015-05-06 12:07:00,
2015-05-06 08:12:00,61.0,58.3,30.20,SSE,154,0.0,0.0,91,0.00,,,0.00,meteobridge,2015-05-06 12:12:00,
2015-05-06 08:17:00,61.3,59.0,30.20,SSE,154,0.0,0.0,92,0.00,,,0.00,meteobridge,2015-05-06 12:17:00,
2015-05-06 08:22:00,62.1,59.7,30.20,SSE,153,0.0,0.0,92,0.00,,,0.00,meteobridge,2015-05-06 12:22:00,
2015-05-06 08:27:00,62.8,60.1,30.20,SSE,154,0.0,0.0,91,0.00,,,0.00,meteobridge,2015-05-06 12:27:00,
2015-05-06 08:32:00,63.3,59.0,30.21,SSE,154,0.0,0.0,86,0.00,,,0.00,meteobridge,2015-05-06 12:32:00,
2015-05-06 08:37:00,64.2,58.6,30.20,SSE,154,0.0,0.0,82,0.00,,,0.00,meteobridge,2015-05-06 12:37:00,
2015-05-06 08:42:00,64.9,59.0,30.21,SSE,153,0.0,0.0,81,0.00,,,0.00,meteobridge,2015-05-06 12:42:00,
2015-05-06 08:47:00,65.8,59.9,30.21,SSE,153,0.0,0.0,81,0.00,,,0.00,meteobridge,2015-05-06 12:47:00,
2015-05-06 08:52:00,66.7,62.1,30.21,SSE,154,0.0,0.0,85,0.00,,,0.00,meteobridge,2015-05-06 12:52:00,
2015-05-06 08:57:00,67.5,62.4,30.21,SSE,154,0.0,0.0,84,0.00,,,0.00,meteobridge,2015-05-06 12:57:00,
2015-05-06 09:03:00,68.4,63.3,30.21,SSE,154,0.0,0.0,84,0.00,,,0.00,meteobridge,2015-05-06 13:03:00,
2015-05-06 09:08:00,70.2,63.7,30.21,SSE,153,0.0,0.0,80,0.00,,,0.00,meteobridge,2015-05-06 13:08:00,
2015-05-06 09:13:00,72.5,64.0,30.21,SSE,153,0.0,0.0,75,0.00,,,0.00,meteobridge,2015-05-06 13:13:00,
2015-05-06 09:18:00,73.9,63.5,30.21,SSE,154,0.0,0.0,70,0.00,,,0.00,meteobridge,2015-05-06 13:18:00,
2015-05-06 09:23:00,74.8,62.2,30.21,SSE,153,0.0,0.0,65,0.00,,,0.00,meteobridge,2015-05-06 13:23:00,
2015-05-06 09:28:00,75.9,61.9,30.21,SSE,154,0.0,0.0,62,0.00,,,0.00,meteobridge,2015-05-06 13:28:00,
2015-05-06 09:33:00,77.0,63.9,30.21,SSE,153,0.0,0.0,64,0.00,,,0.00,meteobridge,2015-05-06 13:33:00,
2015-05-06 09:38:00,76.1,63.5,30.21,SSE,152,0.0,0.0,65,0.00,,,0.00,meteobridge,2015-05-06 13:38:00,
2015-05-06 09:43:00,75.7,63.1,30.21,SSE,152,0.0,0.0,65,0.00,,,0.00,meteobridge,2015-05-06 13:43:00,
2015-05-06 09:48:00,75.9,61.5,30.21,SSE,152,0.0,0.0,61,0.00,,,0.00,meteobridge,2015-05-06 13:48:00,
2015-05-06 09:53:00,76.8,61.9,30.21,SSE,152,0.0,0.0,60,0.00,,,0.00,meteobridge,2015-05-06 13:53:00,
2015-05-06 09:58:00,77.7,59.2,30.21,SSE,152,0.0,0.0,53,0.00,,,0.00,meteobridge,2015-05-06 13:58:00,
2015-05-06 10:03:00,78.6,60.1,30.21,SSE,158,0.0,0.0,53,0.00,,,0.00,meteobridge,2015-05-06 14:03:00,
2015-05-06 10:08:00,79.0,61.9,30.21,SE,135,0.0,1.0,56,0.00,,,0.00,meteobridge,2015-05-06 14:08:00,
2015-05-06 10:13:00,79.2,61.5,30.20,SE,135,0.9,1.0,55,0.00,,,0.00,meteobridge,2015-05-06 14:13:00,
2015-05-06 10:18:00,80.1,59.7,30.20,SE,136,0.0,0.0,50,0.00,,,0.00,meteobridge,2015-05-06 14:18:00,
2015-05-06 10:23:00,81.1,60.8,30.20,SSW,200,0.0,1.0,50,0.00,,,0.00,meteobridge,2015-05-06 14:23:00,
2015-05-06 10:28:00,81.9,59.7,30.20,ESE,121,0.0,2.0,47,0.00,,,0.00,meteobridge,2015-05-06 14:28:00,
2015-05-06 10:33:00,81.5,61.7,30.20,ESE,117,0.9,1.0,51,0.00,,,0.00,meteobridge,2015-05-06 14:33:00,
2015-05-06 10:38:00,81.7,61.2,30.20,ESE,113,0.0,1.0,50,0.00,,,0.00,meteobridge,2015-05-06 14:38:00,
2015-05-06 10:43:00,82.2,63.3,30.20,ESE,111,0.0,1.0,53,0.00,,,0.00,meteobridge,2015-05-06 14:43:00,
2015-05-06 10:48:00,82.9,63.0,30.20,ESE,112,0.0,1.0,51,0.00,,,0.00,meteobridge,2015-05-06 14:48:00,
2015-05-06 10:53:00,83.1,61.3,30.20,East,98,0.0,1.0,48,0.00,,,0.00,meteobridge,2015-05-06 14:53:00,
2015-05-06 10:58:00,82.9,63.5,30.20,NE,55,0.0,0.0,52,0.00,,,0.00,meteobridge,2015-05-06 14:58:00,
2015-05-06 11:03:00,83.3,61.5,30.20,SE,143,0.0,1.0,48,0.00,,,0.00,meteobridge,2015-05-06 15:03:00,
2015-05-06 11:08:00,83.8,60.3,30.20,SE,139,0.0,0.0,45,0.00,,,0.00,meteobridge,2015-05-06 15:08:00,
2015-05-06 11:13:00,84.7,61.7,30.20,SE,136,0.0,0.0,46,0.00,,,0.00,meteobridge,2015-05-06 15:13:00,
2015-05-06 11:18:00,84.6,59.5,30.20,South,184,0.0,1.0,43,0.00,,,0.00,meteobridge,2015-05-06 15:18:00,
2015-05-06 11:23:00,84.6,59.5,30.20,ESE,103,0.0,2.0,43,0.00,,,0.00,meteobridge,2015-05-06 15:23:00,
2015-05-06 11:28:00,84.9,59.9,30.20,ESE,103,0.0,1.0,43,0.00,,,0.00,meteobridge,2015-05-06 15:28:00,
2015-05-06 11:33:00,85.5,63.0,30.20,ESE,114,0.0,1.0,47,0.00,,,0.00,meteobridge,2015-05-06 15:33:00,
2015-05-06 11:38:00,84.7,59.7,30.20,ESE,113,0.0,1.0,43,0.00,,,0.00,meteobridge,2015-05-06 15:38:00,
2015-05-06 11:43:00,84.9,59.2,30.20,ESE,117,0.0,1.0,42,0.00,,,0.00,meteobridge,2015-05-06 15:43:00,
2015-05-06 11:48:00,85.3,59.5,30.20,SE,132,0.9,1.0,42,0.00,,,0.00,meteobridge,2015-05-06 15:48:00,
2015-05-06 11:53:00,84.7,59.7,30.20,SE,138,0.0,1.0,43,0.00,,,0.00,meteobridge,2015-05-06 15:53:00,
2015-05-06 11:58:00,85.1,59.4,30.20,SE,128,0.0,2.0,42,0.00,,,0.00,meteobridge,2015-05-06 15:58:00,
2015-05-06 12:03:00,85.6,64.2,30.20,SW,229,0.9,1.0,49,0.00,,,0.00,meteobridge,2015-05-06 16:03:00,
2015-05-06 12:08:00,86.2,63.5,30.20,East,82,0.0,0.0,47,0.00,,,0.00,meteobridge,2015-05-06 16:08:00,
2015-05-06 12:14:00,86.2,59.7,30.19,SE,132,0.0,1.0,41,0.00,,,0.00,meteobridge,2015-05-06 16:14:00,
2015-05-06 12:19:00,86.0,59.5,30.20,South,174,0.0,0.0,41,0.00,,,0.00,meteobridge,2015-05-06 16:19:00,
2015-05-06 12:24:00,86.2,60.4,30.19,SE,127,2.0,2.0,42,0.00,,,0.00,meteobridge,2015-05-06 16:24:00,
2015-05-06 12:29:00,85.5,59.0,30.19,SSE,153,0.0,1.0,41,0.00,,,0.00,meteobridge,2015-05-06 16:29:00,
2015-05-06 12:34:00,86.2,62.4,30.19,East,84,0.0,1.0,45,0.00,,,0.00,meteobridge,2015-05-06 16:34:00,
2015-05-06 12:39:00,87.1,59.2,30.19,ESE,113,0.0,2.0,39,0.00,,,0.00,meteobridge,2015-05-06 16:39:00,
2015-05-06 12:44:00,87.3,60.6,30.19,ESE,113,0.9,1.0,41,0.00,,,0.00,meteobridge,2015-05-06 16:44:00,
2015-05-06 12:49:00,87.3,58.6,30.18,SE,146,0.0,1.0,38,0.00,,,0.00,meteobridge,2015-05-06 16:49:00,
2015-05-06 12:54:00,87.1,62.6,30.18,SSE,156,0.0,0.0,44,0.00,,,0.00,meteobridge,2015-05-06 16:54:00,
2015-05-06 12:59:00,87.8,61.2,30.18,South,189,0.9,1.0,41,0.00,,,0.00,meteobridge,2015-05-06 16:59:00,